ATLAS 5 CENTAUR DEB, 44656

Orbit data source: Space-Track

ATLAS 5 CENTAUR DEB, 44656 is space debris in HEO originally from a launch on Wed, 17 Oct 2018 UTC launched from the Air Force Eastern Test Range (AFETR). Debris objects in space refer to the collection of defunct objects orbiting the Earth. Examples of debris include non-operational satellites, rocket bodies, and fragments generated from explosions, collisions, or faulty payload assembly.

Loading next visibility...
Identifier
44656, 2018-079S
Orbit
HEO
Country
Flag of USUS
Related business
Flag of USUnited Launch Alliance/Lockheed Martin (US)
Manufacturer
ULA Decatur
Mission
Spacecraft
Bus & Motor
Unknown
Mass
Unknown
Launch date (UTC)
2018-10-17 (8 years ago)
Launch vehicle
Unknown
Launch site
Air Force Eastern Test Range (AFETR)
Object type
Payload
Rocket body
Debris
Shape & HBR
Unknown shape, 1.1 m
Radar Cross Section
Medium (>0.1 m² and <1 m²)

Expand to show TLE details & history
Last TLE update: 2 days ago

TLE from 2 days ago
0 ATLAS 5 CENTAUR DEB
1 44656U 18079S   26247.53761768 -.00000172  00000-0  00000-0 0  9995
2 44656  13.8689  19.8168 4619989 338.8959   6.9202  1.83319764 49235
Epoch: 2026-09-04T12:54Z
TLE epoch observation values (Epoch: 2026-09-04T12:54:10.167Z)
Latitude
-0°
Longitude
-157.36584°
Altitude
9,103.892 km
Speed
6.112 km/s
True Right ascension
01h 19m 20s
True Declination
0° 00' 00"
Sunlit
Object was in daylight at epoch
Visualization orbit readout
Latitude
Unknown
Longitude
Unknown
Altitude
Unknown
Speed
Unknown
Apparent Right ascension
Unknown
Apparent Declination
Unknown
Sunlit
N/A
Visualization observer readout
Local Sidereal Time
13:52:16
Azimuth
Unknown
Elevation
Unknown
Doppler factor
Unknown
Orbital elements
Apogee altitude
34,854.502 km
Perigee altitude
8,795.065 km
Semi-major axis
28,202.921 km
Eccentricity
0.462
Inclination
13.8689°
RAAN
19.8168°
Arg. of periapsis
338.8959°
True anomaly
20.90712°
Mean anomaly
6.9202°
Eccentric anomaly
12.77219°
Mean motion
0.45825 °/min
Orbital period
785.6 mins
BSTAR
0
Loading maneuver chart data...
Computing Atmospheric mass density...

Documentation

Showing up to 5 results
|